TimeCDT,TemperatureF,Dew PointF,Humidity,Sea Level PressureIn,VisibilityMPH,Wind Direction,Wind SpeedMPH,Gust SpeedMPH,PrecipitationIn,Events,Conditions,WindDirDegrees,DateUTC
12:53 AM,68.0,48.9,50,29.88,10.0,SSE,12.7,-,N/A,,Clear,160,2013-05-01 05:53:00
1:53 AM,66.0,50.0,56,29.88,10.0,SSE,10.4,-,N/A,,Clear,150,2013-05-01 06:53:00
2:53 AM,64.0,51.1,63,29.89,10.0,SSE,10.4,-,N/A,,Clear,150,2013-05-01 07:53:00
3:53 AM,63.0,52.0,67,29.91,10.0,SSE,9.2,-,N/A,,Clear,150,2013-05-01 08:53:00
4:53 AM,61.0,52.0,72,29.92,10.0,SE,8.1,-,N/A,,Clear,130,2013-05-01 09:53:00
5:53 AM,59.0,51.1,75,29.95,10.0,SE,5.8,-,N/A,,Clear,140,2013-05-01 10:53:00
6:53 AM,62.1,53.1,72,29.97,10.0,SE,6.9,-,N/A,,Overcast,140,2013-05-01 11:53:00
7:53 AM,64.9,53.1,65,29.99,10.0,SSE,8.1,-,N/A,,Mostly Cloudy,150,2013-05-01 12:53:00
8:53 AM,69.1,55.9,63,30.00,10.0,South,8.1,-,N/A,,Mostly Cloudy,170,2013-05-01 13:53:00
9:53 AM,73.9,60.1,62,30.00,10.0,South,9.2,-,N/A,,Clear,170,2013-05-01 14:53:00
10:53 AM,77.0,61.0,58,30.01,10.0,SSE,6.9,-,N/A,,Clear,160,2013-05-01 15:53:00
11:53 AM,79.0,57.0,47,30.00,10.0,SE,10.4,19.6,N/A,,Mostly Cloudy,140,2013-05-01 16:53:00
12:53 PM,79.0,55.0,44,30.01,10.0,SSE,4.6,-,N/A,,Mostly Cloudy,150,2013-05-01 17:53:00
1:53 PM,81.0,57.9,45,30.00,10.0,East,10.4,17.3,N/A,,Clear,100,2013-05-01 18:53:00
2:53 PM,82.0,57.9,44,29.99,10.0,SE,10.4,-,N/A,,Clear,130,2013-05-01 19:53:00
3:53 PM,82.9,57.9,42,29.98,10.0,ESE,8.1,-,N/A,,Partly Cloudy,110,2013-05-01 20:53:00
4:53 PM,82.9,57.0,41,29.96,10.0,ESE,10.4,-,N/A,,Clear,110,2013-05-01 21:53:00
5:53 PM,80.1,57.0,45,29.97,10.0,SSE,10.4,-,N/A,,Mostly Cloudy,150,2013-05-01 22:53:00
6:53 PM,79.0,59.0,50,29.97,10.0,ESE,5.8,-,N/A,,Mostly Cloudy,110,2013-05-01 23:53:00
7:53 PM,78.1,57.9,50,29.98,10.0,Calm,Calm,-,N/A,,Scattered Clouds,0,2013-05-02 00:53:00
8:53 PM,75.0,57.0,53,30.00,10.0,SE,3.5,-,N/A,,Partly Cloudy,130,2013-05-02 01:53:00
9:53 PM,70.0,57.0,63,30.03,10.0,WNW,13.8,19.6,N/A,,Overcast,300,2013-05-02 02:53:00
10:11 PM,66.2,51.8,60,30.05,10.0,North,17.3,21.9,N/A,,Overcast,350,2013-05-02 03:11:00
10:28 PM,62.6,51.8,68,30.08,10.0,NNW,15.0,23.0,N/A,Thunderstorm,Overcast,330,2013-05-02 03:28:00
10:45 PM,62.6,50.0,63,30.09,10.0,North,11.5,21.9,N/A,,Overcast,350,2013-05-02 03:45:00
10:53 PM,61.0,51.1,70,30.07,10.0,NW,10.4,-,N/A,,Mostly Cloudy,320,2013-05-02 03:53:00
11:06 PM,60.8,50.0,68,30.10,10.0,NNW,11.5,-,N/A,Thunderstorm,Mostly Cloudy,330,2013-05-02 04:06:00
11:53 PM,57.0,48.9,74,30.10,10.0,NNW,17.3,-,N/A,Thunderstorm,Overcast,340,2013-05-02 04:53:00